Flag for Brazil Weather past 2 weeks in Foz do Iguaçu, Paraná, Brazil

Now
79 °F

Sunny.


Feels Like: 80 °F
Forecast: 60 / 82 °F
Wind: 7 mph from Northeast

Location: Foz Do Iguacu Aeroporto

Current Time: Apr 27, 2015 at 1:44:38 PM

Latest Report: Apr 27, 2015 at 1:00 PM


Visibility: 10 mi

Pressure: 30.01 "Hg

Humidity: 58%

Dew point: 63 °F

Location of Foz do IguaçuLocation

Historic Weather in Foz do Iguaçu — Graph

°F

Foz do Iguaçu temperature yesterday

Maximum temperature yesterday: 81 °F (at 3:00 PM)
Minimum temperature yesterday: 59 °F (at 1:00 AM)
Average temperature yesterday: 68 °F

Past Weeks' High & Low Weather Summary

 TemperatureHumidityPressure
High88 °F (Apr 13, 3:00 PM)100% (Apr 13, 2:00 AM)30.15 "Hg (Apr 13, 2:00 AM)
Low57 °F (Apr 25, 2:00 AM)46% (Apr 12, 1:00 PM)29.74 "Hg (Apr 20, 4:00 PM)
Average71 °F86%29.96 "Hg
* Reported Apr 12 12:00 Noon — Apr 27 12:00 Noon, Foz do Iguaçu, Weather by CustomWeather, © 2015

Note: Actual official high and low records may vary slightly from our data, if they occured in-between our weather recording intervals... More about our weather records

Advertising

Foz do Iguaçu weather history for previous 24 hours

 ConditionsComfort  
Time TempWeatherWind HumidityBarometerVisibility
12:00 PM
Mon, Apr 27
77 °FSunny.7 mph65%30.04 "Hg10 mi
11:00 AM73 °FSunny.7 mph69%30.07 "Hg10 mi
10:00 AM70 °FSunny.7 mph73%30.09 "Hg10 mi
9:00 AM66 °FSunny.8 mph83%30.09 "Hg10 mi
8:00 AM63 °FSunny.5 mph88%30.09 "Hg10 mi
7:00 AM61 °FSunny.8 mph94%30.07 "Hg10 mi
6:00 AM63 °FSunny.9 mph88%30.04 "Hg10 mi
5:00 AM63 °FClear.5 mph88%30.04 "Hg10 mi
4:00 AM63 °FClear.6 mph94%30.04 "Hg10 mi
3:00 AM63 °FClear.7 mph100%30.01 "Hg10 mi
2:00 AM64 °FClear.5 mph94%30.04 "Hg10 mi
1:00 AM64 °FClear.5 mph100%30.04 "Hg10 mi
12:00 AM64 °FClear.5 mph94%30.04 "Hg10 mi
11:00 PM
Sun, Apr 26
64 °FClear.6 mph100%30.04 "Hg10 mi
10:00 PM66 °FClear.1 mph94%30.04 "Hg10 mi
9:00 PM66 °FClear.2 mph94%30.04 "Hg10 mi
8:00 PM68 °FClear.2 mph88%30.01 "Hg10 mi
7:00 PM70 °FClear.2 mph88%30.01 "Hg10 mi
6:00 PM75 °FClear.5 mph74%30.01 "Hg10 mi
5:00 PM79 °FSunny.6 mph61%30.01 "Hg10 mi
4:00 PM81 °FSunny.6 mph54%30.01 "Hg10 mi
3:00 PM81 °FSunny.5 mph54%30.01 "Hg10 mi
2:00 PM79 °FSunny.6 mph58%30.04 "Hg10 mi
1:00 PM77 °FSunny.6 mph61%30.07 "Hg10 mi
Weather by CustomWeather, © 2015

See weather overviewHow to use our weather pages